Temp
11 11 11 11 11 12 12 12 12 12 12 11 11 11 10 10 11 10 10 10 10 10 9 8 8 8 8 7 8 8 8 9 9 9 9 9 8 8 8 8 8 8 8 8
11 11 11 11 11 11 11 11 12 12 13 12 12 12 12 12 12 11 11 11 10 10 9 9 9 8 8 8 8 9 9 8 8 8 8 8 8 8 8 8 8 8 8 8
10 11 11 11 11 11 11 12 12 12 12 12 11 12 13 13 13 12 12 11 10 11 10 9 9 9 8 8 8 8 8 8 8 8 8 8 8 8 8 8 8 8 8 8
11 11 11 11 11 11 12 12 12 12 11 11 11 12 13 14 14 13 12 12 12 12 11 10 9 9 9 8 8 8 8 8 8 8 8 8 8 8 8 8 8 8 8 8
11 11 11 11 12 12 12 13 13 13 10 10 11 10 13 13 15 14 14 13 12 12 11 11 10 10 9 9 8 8 8 8 9 8 8 8 8 7 7 7 8 8 8 7
12 11 12 12 12 12 12 13 12 12 11 11 12 11 14 14 15 14 14 14 13 12 12 12 10 10 9 9 8 8 8 8 8 8 8 8 8 8 8 7 7 7 8 8
12 12 12 12 12 12 12 12 13 13 13 14 12 11 14 15 15 15 14 14 14 13 12 11 11 11 10 9 9 8 8 8 8 8 8 8 8 8 8 8 7 7 8 8
12 13 13 13 13 13 13 13 14 13 14 14 12 12 14 15 15 15 14 14 14 13 13 12 12 11 10 10 9 9 9 7 8 8 8 7 8 8 8 8 8 8 8 8
12 13 13 13 13 13 13 12 14 13 12 11 13 14 14 15 15 15 15 15 15 14 13 12 12 12 11 10 10 10 9 8 8 8 8 8 8 8 8 8 8 8 8 7
12 12 13 13 13 14 14 13 13 13 14 14 13 13 14 15 15 15 15 14 14 14 13 12 12 12 11 11 10 10 9 9 8 8 8 8 8 8 8 8 8 8 8 8
12 12 13 12 13 13 14 13 13 13 13 15 15 15 15 15 15 15 14 14 14 14 13 13 12 11 11 11 10 10 9 10 9 9 8 8 8 8 8 8 8 8 8 8
13 12 12 13 14 13 13 13 14 14 13 12 12 14 15 15 15 15 14 14 14 14 13 13 12 12 11 11 11 11 10 10 9 9 9 8 8 8 8 8 8 8 8 8
13 12 12 13 13 13 13 14 14 13 14 13 15 15 15 15 15 15 14 14 14 14 13 13 12 12 12 11 11 11 10 10 10 10 9 9 8 8 8 8 8 8 8 8
12 12 13 14 14 14 13 14 15 14 14 14 14 15 15 15 15 15 15 14 14 13 13 13 12 12 11 11 11 11 11 10 10 10 10 10 9 9 9 8 8 8 8 8
11 11 12 13 13 13 13 13 14 14 15 14 15 15 15 15 15 15 15 14 13 13 13 13 13 12 12 12 12 11 11 11 10 10 10 10 9 9 9 9 8 8 9 8
10 10 11 12 12 13 13 13 13 14 14 15 14 14 15 15 15 15 15 15 14 14 13 13 13 12 12 12 11 11 11 11 11 11 10 10 9 9 9 9 9 8 8 9
9 9 10 11 11 12 12 13 14 14 14 15 14 15 15 15 15 15 15 15 15 14 14 13 13 12 12 12 11 11 11 10 10 10 10 10 10 10 10 9 9 9 9 9
8 8 8 10 10 11 12 13 13 14 13 14 14 14 14 15 14 14 15 15 14 14 14 13 13 12 12 11 11 11 10 10 10 10 11 11 11 11 11 10 10 9 9 9
7 8 7 8 10 10 11 12 13 13 13 13 14 14 14 14 14 14 15 15 14 14 13 13 12 12 12 11 11 10 10 10 10 10 11 11 11 11 10 10 9 9 9 9
7 7 7 8 9 10 10 11 12 13 12 13 14 14 14 14 14 14 14 14 14 14 13 13 12 12 12 11 11 11 10 10 10 10 10 10 10 10 10 10 9 9 9 9
6 6 6 7 7 9 10 10 11 10 12 13 13 14 14 14 14 14 13 13 13 13 13 13 13 11 11 11 10 10 10 9 9 10 10 10 10 10 9 10 10 10 10 10
5 6 6 6 7 8 9 9 10 10 12 12 13 13 13 13 13 13 13 13 13 13 13 13 13 12 11 11 10 10 10 9 9 10 10 10 10 10 9 9 9 9 9 9
4 5 5 6 7 7 8 9 10 10 10 11 12 13 13 13 13 13 13 12 12 13 12 12 13 12 11 11 10 10 9 9 9 9 9 9 9 9 9 9 9 8 8 8
2 3 3 4 5 6 7 8 9 9 10 10 11 11 12 12 12 13 13 13 12 13 12 12 12 12 11 11 10 10 9 10 9 9 9 9 9 8 8 8 8 8 8 7
1 2 2 3 4 4 5 6 7 7 8 9 10 10 11 11 12 12 12 12 12 12 12 12 12 11 11 11 10 10 10 9 9 9 9 9 8 8 8 8 8 8 8 8
1 2 2 2 3 3 4 5 6 6 6 7 8 9 11 11 12 12 12 12 12 12 12 11 11 10 10 10 10 9 9 9 9 9 9 8 8 8 8 8 8 8 8 8
Height
3169 3171 3170 3174 3176 3176 3176 3175 3174 3172 3171 3169 3168 3167 3167 3167 3168 3169 3170 3173 3175 3177 3181 3181 3182 3183 3184 3186 3188 3189 3191 3192 3194 3198 3200 3201 3204 3208 3210 3213 3215 3219 3222 3224
3168 3165 3170 3172 3173 3174 3174 3174 3173 3172 3170 3170 3168 3166 3165 3164 3165 3167 3168 3169 3172 3175 3177 3178 3180 3181 3183 3185 3187 3189 3190 3192 3195 3198 3200 3202 3204 3208 3210 3212 3215 3218 3221 3224
3164 3166 3167 3169 3171 3172 3172 3172 3172 3173 3169 3168 3168 3165 3164 3163 3162 3162 3163 3165 3167 3170 3173 3175 3178 3180 3182 3184 3186 3189 3190 3192 3194 3196 3199 3201 3204 3206 3209 3212 3215 3218 3220 3223
3163 3164 3165 3165 3166 3170 3170 3171 3171 3169 3169 3169 3167 3166 3161 3160 3158 3156 3157 3160 3162 3165 3168 3170 3173 3178 3180 3183 3184 3187 3189 3191 3193 3195 3198 3201 3204 3207 3209 3211 3213 3215 3218 3220
3160 3158 3160 3163 3164 3168 3168 3169 3168 3166 3167 3167 3167 3168 3158 3157 3155 3154 3152 3152 3157 3161 3163 3167 3170 3174 3178 3181 3184 3185 3187 3189 3192 3194 3196 3199 3202 3205 3207 3210 3211 3213 3215 3218
3158 3158 3159 3161 3164 3166 3166 3166 3166 3165 3166 3166 3164 3165 3155 3154 3153 3152 3151 3150 3151 3154 3158 3163 3167 3171 3175 3178 3181 3184 3185 3187 3189 3192 3194 3196 3200 3202 3204 3207 3210 3212 3214 3216
3154 3154 3157 3159 3161 3162 3163 3164 3165 3164 3164 3161 3160 3161 3153 3152 3150 3149 3148 3147 3148 3149 3152 3156 3162 3167 3171 3174 3178 3181 3184 3185 3187 3189 3192 3194 3196 3199 3202 3204 3207 3209 3212 3214
3152 3150 3150 3153 3154 3158 3159 3162 3161 3159 3158 3158 3158 3155 3150 3149 3147 3145 3143 3143 3144 3144 3147 3151 3156 3163 3168 3172 3175 3178 3181 3181 3184 3185 3189 3191 3193 3195 3199 3201 3203 3206 3209 3211
3149 3147 3147 3148 3152 3156 3155 3156 3157 3156 3156 3157 3154 3150 3146 3145 3145 3143 3142 3142 3141 3141 3143 3148 3153 3159 3165 3169 3172 3176 3178 3179 3179 3182 3185 3188 3190 3192 3194 3197 3200 3202 3205 3207
3146 3147 3146 3146 3148 3150 3151 3152 3153 3153 3152 3151 3149 3147 3145 3143 3142 3140 3139 3140 3139 3137 3139 3143 3148 3154 3160 3165 3169 3172 3175 3175 3177 3180 3182 3184 3186 3188 3190 3192 3195 3198 3200 3203
3141 3143 3144 3144 3144 3145 3147 3147 3147 3148 3148 3146 3145 3144 3141 3141 3139 3138 3137 3137 3137 3135 3136 3141 3147 3152 3157 3161 3165 3168 3170 3172 3174 3176 3179 3180 3183 3184 3186 3188 3190 3192 3195 3197
3136 3138 3136 3137 3138 3140 3142 3143 3143 3144 3144 3143 3143 3140 3139 3139 3138 3136 3136 3136 3136 3135 3136 3140 3145 3149 3153 3157 3160 3164 3166 3168 3170 3173 3175 3176 3177 3179 3181 3183 3185 3186 3188 3191
3132 3132 3133 3132 3134 3133 3134 3135 3137 3139 3139 3138 3139 3135 3136 3136 3136 3135 3135 3136 3136 3136 3137 3140 3143 3146 3150 3154 3157 3160 3162 3164 3166 3167 3169 3170 3172 3174 3176 3178 3180 3181 3182 3184
3128 3127 3127 3126 3127 3129 3129 3130 3131 3132 3134 3132 3131 3131 3132 3133 3133 3133 3133 3134 3136 3137 3138 3140 3142 3145 3148 3151 3153 3155 3157 3159 3160 3161 3163 3165 3167 3169 3170 3171 3173 3175 3177 3178
3123 3121 3122 3121 3122 3123 3124 3126 3125 3125 3127 3126 3128 3127 3129 3129 3129 3130 3130 3131 3134 3136 3138 3141 3143 3145 3147 3148 3150 3151 3152 3153 3154 3156 3156 3159 3161 3163 3164 3165 3166 3168 3170 3172
3116 3115 3116 3115 3118 3116 3115 3117 3118 3120 3119 3120 3121 3122 3125 3126 3126 3127 3128 3129 3131 3134 3136 3139 3141 3143 3144 3146 3147 3147 3147 3148 3149 3150 3151 3153 3154 3156 3158 3160 3161 3162 3164 3165
3111 3111 3111 3109 3112 3110 3104 3109 3112 3113 3113 3116 3115 3118 3120 3122 3123 3124 3125 3126 3129 3132 3134 3137 3139 3140 3141 3142 3143 3142 3142 3143 3144 3145 3147 3148 3149 3150 3152 3153 3153 3155 3157 3158
3105 3106 3106 3105 3106 3097 3099 3101 3104 3106 3108 3110 3111 3113 3116 3118 3119 3121 3122 3124 3126 3129 3131 3133 3135 3137 3138 3139 3138 3137 3137 3138 3140 3141 3143 3143 3144 3144 3144 3145 3146 3147 3148 3150
3099 3102 3101 3100 3097 3094 3093 3094 3096 3097 3100 3104 3107 3110 3111 3113 3115 3117 3118 3120 3122 3125 3128 3129 3131 3133 3135 3135 3133 3132 3134 3135 3136 3138 3139 3139 3139 3138 3137 3137 3138 3139 3140 3141
3090 3092 3094 3093 3090 3086 3090 3090 3089 3090 3090 3094 3099 3103 3105 3107 3109 3111 3112 3112 3114 3119 3122 3125 3127 3130 3131 3131 3130 3131 3131 3132 3133 3135 3135 3135 3135 3135 3134 3135 3135 3134 3134 3135
3082 3082 3082 3084 3082 3082 3084 3085 3086 3086 3087 3087 3092 3095 3099 3102 3104 3105 3106 3107 3107 3111 3116 3119 3123 3126 3128 3128 3128 3128 3129 3130 3131 3131 3131 3132 3132 3132 3132 3133 3132 3131 3131 3130
3077 3078 3075 3077 3077 3075 3077 3080 3080 3078 3080 3082 3086 3089 3093 3096 3098 3099 3101 3102 3102 3106 3110 3114 3118 3122 3123 3125 3125 3125 3126 3127 3127 3128 3128 3128 3128 3128 3129 3129 3128 3127 3127 3126
3068 3069 3070 3071 3068 3067 3069 3072 3072 3073 3076 3077 3079 3083 3087 3091 3092 3094 3095 3097 3098 3100 3105 3110 3113 3117 3119 3121 3121 3122 3123 3123 3124 3124 3124 3124 3125 3125 3125 3124 3124 3124 3124 3123
3060 3061 3060 3063 3062 3061 3062 3063 3065 3067 3070 3072 3074 3077 3081 3084 3086 3089 3090 3092 3094 3095 3099 3105 3108 3112 3114 3116 3117 3118 3120 3119 3119 3120 3120 3120 3120 3120 3120 3120 3120 3120 3120 3120
3055 3054 3054 3053 3055 3057 3057 3058 3059 3061 3063 3066 3069 3072 3075 3078 3080 3083 3085 3086 3089 3092 3095 3100 3104 3106 3109 3111 3113 3115 3116 3116 3115 3116 3116 3116 3116 3116 3115 3115 3116 3116 3116 3116
3044 3044 3046 3045 3049 3050 3051 3053 3054 3055 3057 3059 3062 3065 3068 3071 3074 3076 3079 3082 3084 3087 3090 3093 3098 3102 3106 3108 3109 3110 3112 3111 3111 3111 3111 3111 3110 3110 3110 3111 3111 3112 3112 3112
Wind_Speed
24 24 24 20 18 16 15 15 16 17 11 11 8 6 9 8 10 15 20 23 16 18 19 16 14 12 10 7 8 9 11 10 8 8 10 13 14 15 17 19 20 19 19 19
25 29 24 19 18 17 15 15 15 14 13 11 9 8 8 11 10 11 13 15 21 22 23 19 17 14 11 10 9 8 13 11 9 10 9 11 13 14 18 17 18 17 17 16
26 11 22 25 22 20 18 19 17 17 20 14 15 19 9 12 13 16 17 16 18 23 26 22 18 15 13 13 11 11 10 12 11 13 13 13 14 17 17 15 16 16 15 17
27 30 24 15 28 20 20 16 16 19 10 7 7 7 20 12 16 18 18 19 18 28 23 24 21 20 17 11 11 14 13 11 10 14 14 13 10 13 12 12 16 15 19 17
12 14 24 25 19 18 17 13 10 9 7 11 10 7 9 21 10 10 10 14 15 21 29 25 19 19 19 17 14 12 13 12 10 8 11 13 13 15 17 17 15 15 16 19
12 5 13 14 11 9 12 11 7 2 3 6 8 8 18 10 16 14 10 8 12 17 22 25 24 24 21 21 18 16 14 13 11 8 9 12 15 16 19 19 18 19 18 18
16 19 17 16 14 14 14 9 2 3 3 7 9 6 21 20 13 16 13 10 11 17 20 26 31 24 26 26 22 22 20 17 14 12 9 8 10 17 19 18 18 21 20 21
5 6 24 21 24 17 18 15 9 7 6 10 8 7 11 20 22 19 14 9 12 18 21 23 27 29 29 24 20 16 12 18 27 18 13 11 12 14 19 20 19 20 19 19
5 5 5 27 24 22 18 17 19 10 6 5 9 18 24 17 14 20 7 4 5 10 19 21 26 30 28 22 19 16 17 14 12 9 15 12 12 13 13 18 21 20 20 19
15 16 3 10 18 23 26 19 7 7 5 9 7 13 17 17 18 10 4 4 7 10 18 23 24 31 26 22 19 15 12 11 14 13 14 13 12 14 14 17 20 22 22 22
21 22 15 10 11 15 16 15 16 14 8 9 9 8 9 10 11 10 4 3 7 6 15 23 24 27 26 23 20 15 12 15 12 15 15 14 16 15 16 17 19 20 23 25
17 13 17 21 19 17 22 19 16 14 9 9 8 19 16 11 12 10 6 4 3 2 16 19 23 22 20 19 19 15 12 12 16 16 17 16 15 19 21 20 19 20 21 23
12 13 9 12 15 19 21 21 23 20 22 17 13 17 15 15 12 7 4 11 5 6 11 17 19 20 21 19 18 16 16 15 17 18 20 21 21 21 22 22 21 21 20 21
15 16 18 20 13 7 9 17 22 21 17 17 21 22 19 18 14 7 8 14 12 10 9 11 12 12 14 16 17 18 20 21 22 21 21 22 23 23 22 25 24 26 24 23
19 20 21 25 25 22 25 28 29 26 25 25 22 25 17 12 12 10 4 11 17 13 9 8 7 5 4 7 11 14 17 19 22 22 22 22 22 25 26 26 29 30 30 27
22 21 23 28 25 25 29 28 28 28 28 29 27 22 13 10 14 12 7 7 12 15 14 13 9 8 8 7 8 12 14 16 16 19 20 21 24 26 28 27 26 30 31 31
19 16 18 24 22 28 31 29 31 30 33 30 26 22 15 12 12 15 11 12 10 13 14 14 13 10 12 12 12 12 14 14 13 15 16 19 21 25 26 29 31 31 33 33
21 16 15 17 20 20 27 26 31 35 29 27 24 19 15 11 14 17 19 19 15 14 14 14 14 14 15 14 12 9 8 9 10 11 12 14 19 23 27 32 35 35 35 35
27 24 15 15 20 23 16 25 27 35 41 32 25 19 17 15 14 14 15 15 21 17 14 13 13 14 11 12 8 6 7 8 8 9 9 9 7 9 14 19 22 25 31 37
31 33 29 20 16 19 20 19 22 29 30 34 33 25 23 21 22 24 19 17 20 24 20 17 18 13 8 9 4 5 7 9 9 8 6 5 4 4 4 4 8 10 13 18
15 25 31 31 27 29 16 20 25 18 17 27 30 28 27 24 23 19 17 15 15 19 23 23 18 15 9 8 6 5 7 8 8 6 6 7 7 7 7 8 9 10 11 13
25 28 29 21 23 26 24 28 21 20 25 21 24 25 24 24 22 20 17 11 14 20 25 24 19 16 10 9 10 7 10 9 8 6 7 7 7 9 10 10 11 12 12 11
28 25 23 23 22 24 23 31 31 28 19 24 32 26 24 25 24 22 17 8 9 22 28 23 20 18 12 10 10 11 13 11 9 9 9 9 11 12 13 14 13 12 11 9
21 21 26 26 25 16 24 30 33 31 22 21 25 24 31 31 28 27 25 21 13 21 28 25 22 20 17 14 13 12 16 14 12 12 12 13 15 15 15 15 14 13 12 10
24 26 19 22 23 21 19 21 20 20 22 23 23 24 25 29 26 22 21 20 15 17 26 28 25 23 20 17 16 15 18 17 15 15 16 17 17 17 17 14 13 12 12 11
32 34 32 27 21 21 22 22 27 31 25 26 23 23 28 31 24 26 25 20 22 21 21 27 31 30 25 20 18 18 21 18 17 17 18 19 20 20 14 11 11 11 11 12
Wind_Direction
214 219 223 231 252 264 282 287 306 327 325 313 289 285 269 253 236 214 223 221 207 199 194 194 184 183 186 179 160 181 187 161 139 152 157 160 170 181 177 181 188 191 192 197
216 231 236 242 249 255 273 285 294 311 322 301 302 296 286 278 267 243 232 231 231 199 194 194 193 190 188 187 181 179 190 192 179 165 171 175 181 183 182 184 185 193 197 202
222 235 243 241 243 249 263 270 285 303 299 290 285 302 304 321 303 257 234 234 233 207 199 192 196 179 185 182 184 187 182 179 191 188 189 189 187 190 188 194 200 203 211 221
236 236 236 246 238 241 258 264 293 294 282 280 294 293 304 311 315 291 258 235 230 219 210 202 199 204 194 182 175 191 192 189 196 198 194 197 192 198 195 193 209 213 212 220
236 244 234 234 227 228 254 286 302 272 234 270 270 270 284 305 318 334 310 252 231 225 220 216 203 200 199 196 195 184 196 198 202 201 199 204 204 198 205 208 209 214 213 216
239 240 215 224 205 219 249 280 295 272 239 259 269 248 293 294 315 314 314 259 217 221 212 218 208 205 205 204 194 194 197 197 192 201 203 200 211 213 210 213 216 218 217 226
254 255 237 216 236 237 238 236 235 217 211 273 280 256 270 298 317 312 310 258 235 227 215 209 206 204 199 198 204 207 202 206 203 207 217 208 208 221 216 213 219 220 232 236
268 256 225 214 224 223 240 227 236 261 255 282 283 249 273 296 300 327 303 272 237 220 215 206 192 195 193 197 205 214 227 231 222 217 215 226 217 217 219 217 217 224 234 231
247 265 352 221 222 230 239 230 248 244 262 269 265 278 297 288 289 325 302 238 282 252 213 206 194 196 197 205 216 220 236 232 205 215 206 213 223 223 221 222 223 225 231 230
251 266 294 209 221 228 239 255 235 223 242 267 246 268 270 299 313 317 264 254 294 254 213 191 192 196 200 195 204 213 232 197 198 202 213 216 220 227 226 227 225 226 226 229
237 242 254 239 228 224 236 247 235 236 222 263 267 265 289 329 330 330 218 272 307 249 195 189 180 182 188 204 212 209 207 211 220 214 215 225 234 237 237 235 233 229 228 228
234 232 249 248 255 247 251 256 263 244 236 231 249 264 279 305 329 322 216 207 75 155 178 176 184 187 189 197 197 202 202 213 228 233 229 227 238 239 240 237 239 238 236 234
225 220 240 265 267 258 249 252 254 252 255 234 242 266 276 285 311 293 247 197 141 119 171 184 182 191 198 201 212 224 229 233 236 237 240 238 239 239 243 242 242 245 244 242
230 236 235 243 251 288 262 266 253 254 243 243 241 265 276 274 278 262 247 215 189 148 140 149 169 189 204 216 223 228 232 237 241 242 242 241 245 252 251 245 243 243 246 248
240 247 254 259 264 263 254 265 264 253 260 239 258 264 267 262 248 252 239 206 204 196 191 169 168 167 187 219 230 234 239 244 245 248 252 250 248 250 255 255 244 244 247 247
254 257 256 257 259 264 251 243 255 254 251 253 251 253 245 231 232 231 263 218 208 212 208 206 208 227 240 253 267 251 245 245 246 249 253 252 242 250 249 254 252 248 250 251
244 251 252 255 256 258 254 238 245 260 251 246 235 243 238 232 238 235 233 240 215 216 220 223 230 243 259 273 284 255 245 244 248 252 256 259 254 255 255 252 252 249 251 252
249 244 256 258 251 246 257 252 243 244 264 236 233 236 224 235 229 238 239 243 227 217 220 226 236 254 268 283 290 243 232 233 237 245 255 262 263 260 259 255 253 251 252 255
242 246 251 244 240 252 257 244 232 233 239 241 236 227 230 227 224 227 248 259 245 234 215 219 229 236 261 291 289 241 238 244 253 262 267 268 287 281 264 255 255 254 256 256
235 238 237 239 243 247 249 251 240 230 230 233 225 224 225 232 237 254 250 256 246 225 211 212 219 227 255 287 290 255 243 254 266 271 274 285 302 323 337 283 266 264 263 259
235 237 235 239 246 249 239 244 250 221 226 226 227 221 222 235 240 250 254 249 232 203 208 210 213 218 242 278 285 275 269 255 252 273 290 298 298 296 298 296 298 298 294 289
243 243 241 243 243 246 232 238 239 242 227 221 212 215 213 224 234 248 252 240 230 211 203 210 215 221 233 274 280 288 303 274 260 274 291 300 311 316 311 306 303 303 307 308
247 246 249 243 242 239 232 227 237 247 239 226 220 222 215 219 233 241 237 221 234 208 205 212 220 225 230 261 286 289 304 295 277 276 285 296 308 311 307 300 296 299 302 305
257 251 248 245 246 240 221 226 227 235 230 232 222 220 225 217 229 231 241 248 254 210 200 216 222 229 235 252 273 287 295 291 281 276 282 293 301 303 301 293 287 287 290 286
257 255 256 249 244 247 246 245 241 231 230 228 223 219 215 212 219 230 243 250 230 213 206 217 227 232 235 246 260 276 291 287 280 275 281 289 294 297 298 285 279 281 282 277
254 250 248 249 244 244 232 232 234 243 243 241 237 235 219 230 234 241 249 246 233 236 225 219 224 228 233 244 257 274 285 282 280 277 280 286 292 296 288 280 280 281 281 280